Time,TemperatureF,DewpointF,PressureIn,WindDirection,WindDirectionDegrees,WindSpeedMPH,WindSpeedGustMPH,Humidity,HourlyPrecipIn,Conditions,Clouds,dailyrainin,SoftwareType,DateUTC
2013-02-17 00:00:00,13.1,8.9,30.01,ESE,102,0.0,0.0,83,0.00,,,0.00,vanprod-2.3,2013-02-17 06:00:00,
2013-02-17 00:05:00,13.1,9.2,30.02,ESE,102,0.0,2.0,84,0.00,,,0.00,vanprod-2.3,2013-02-17 06:05:00,
2013-02-17 00:10:00,13.6,9.7,30.01,ESE,106,1.0,0.0,84,0.00,,,0.00,vanprod-2.3,2013-02-17 06:10:00,
2013-02-17 00:15:00,13.9,10.0,30.01,ESE,107,3.0,3.0,84,0.00,,,0.00,vanprod-2.3,2013-02-17 06:15:00,
2013-02-17 00:20:00,14.1,9.9,30.01,ESE,107,1.0,1.0,83,0.00,,,0.00,vanprod-2.3,2013-02-17 06:20:00,
2013-02-17 00:25:00,14.3,10.1,30.00,ESE,107,2.0,3.0,83,0.00,,,0.00,vanprod-2.3,2013-02-17 06:25:00,
2013-02-17 00:30:00,14.3,10.4,30.00,ESE,109,2.0,3.0,84,0.00,,,0.00,vanprod-2.3,2013-02-17 06:30:00,
2013-02-17 00:35:00,14.6,10.7,30.00,ESE,109,2.0,2.0,84,0.00,,,0.00,vanprod-2.3,2013-02-17 06:35:00,
2013-02-17 00:40:00,14.7,10.8,30.00,ESE,119,2.0,2.0,84,0.00,,,0.00,vanprod-2.3,2013-02-17 06:40:00,
2013-02-17 00:45:00,14.7,10.8,29.99,ESE,120,2.0,2.0,84,0.00,,,0.00,vanprod-2.3,2013-02-17 06:45:00,
2013-02-17 00:50:00,14.9,10.9,29.99,ESE,121,2.0,2.0,84,0.00,,,0.00,vanprod-2.3,2013-02-17 06:50:00,
2013-02-17 00:55:00,14.9,10.9,29.99,ESE,121,1.0,1.0,84,0.00,,,0.00,vanprod-2.3,2013-02-17 06:55:00,
2013-02-17 01:00:00,15.1,11.1,29.99,ESE,121,2.0,2.0,84,0.00,,,0.00,vanprod-2.3,2013-02-17 07:00:00,
2013-02-17 01:05:00,15.1,11.1,29.99,SE,131,3.0,3.0,84,0.00,,,0.00,vanprod-2.3,2013-02-17 07:05:00,
2013-02-17 01:10:00,15.2,11.5,29.99,SE,133,2.0,3.0,85,0.00,,,0.00,vanprod-2.3,2013-02-17 07:10:00,
2013-02-17 01:15:00,15.4,11.4,29.99,SE,133,1.0,1.0,84,0.00,,,0.00,vanprod-2.3,2013-02-17 07:15:00,
2013-02-17 01:20:00,15.4,11.7,29.99,SE,131,2.0,2.0,85,0.00,,,0.00,vanprod-2.3,2013-02-17 07:20:00,
2013-02-17 01:25:00,15.6,11.9,29.99,SE,131,1.0,1.0,85,0.00,,,0.00,vanprod-2.3,2013-02-17 07:25:00,
2013-02-17 01:30:00,15.6,11.9,29.98,SSE,150,2.0,3.0,85,0.00,,,0.00,vanprod-2.3,2013-02-17 07:30:00,
2013-02-17 01:35:00,15.6,11.9,29.98,SSE,150,2.0,2.0,85,0.00,,,0.00,vanprod-2.3,2013-02-17 07:35:00,
2013-02-17 01:40:00,15.2,11.2,29.98,SSE,150,1.0,2.0,84,0.00,,,0.00,vanprod-2.3,2013-02-17 07:40:00,
2013-02-17 01:45:00,14.9,10.9,29.98,SSE,150,1.0,2.0,84,0.00,,,0.00,vanprod-2.3,2013-02-17 07:45:00,
2013-02-17 01:50:00,14.6,10.7,29.98,SSE,150,2.0,2.0,84,0.00,,,0.00,vanprod-2.3,2013-02-17 07:50:00,
2013-02-17 01:55:00,14.3,10.6,29.98,SSE,150,1.0,1.0,85,0.00,,,0.00,vanprod-2.3,2013-02-17 07:55:00,
2013-02-17 02:00:00,14.3,10.6,29.98,SSE,150,1.0,2.0,85,0.00,,,0.00,vanprod-2.3,2013-02-17 08:00:00,
2013-02-17 02:05:00,14.3,10.6,29.98,SSE,150,2.0,2.0,85,0.00,,,0.00,vanprod-2.3,2013-02-17 08:05:00,
2013-02-17 02:10:00,14.3,10.9,29.97,SSE,150,2.0,3.0,86,0.00,,,0.00,vanprod-2.3,2013-02-17 08:10:00,
2013-02-17 02:15:00,14.4,11.0,29.97,SSE,150,2.0,2.0,86,0.00,,,0.00,vanprod-2.3,2013-02-17 08:15:00,
2013-02-17 02:20:00,14.3,10.9,29.97,SSE,150,2.0,2.0,86,0.00,,,0.00,vanprod-2.3,2013-02-17 08:20:00,
2013-02-17 02:25:00,14.1,10.7,29.97,SSE,150,2.0,2.0,86,0.00,,,0.00,vanprod-2.3,2013-02-17 08:25:00,
2013-02-17 02:30:00,14.1,10.7,29.97,SSE,150,1.0,2.0,86,0.00,,,0.00,vanprod-2.3,2013-02-17 08:30:00,
2013-02-17 02:35:00,13.8,10.4,29.97,SSE,150,2.0,2.0,86,0.00,,,0.00,vanprod-2.3,2013-02-17 08:35:00,
2013-02-17 02:40:00,13.5,10.1,29.97,SSE,150,2.0,3.0,86,0.00,,,0.00,vanprod-2.3,2013-02-17 08:40:00,
2013-02-17 02:45:00,13.3,9.9,29.97,SSE,150,2.0,2.0,86,0.00,,,0.00,vanprod-2.3,2013-02-17 08:45:00,
2013-02-17 02:50:00,13.1,9.7,29.97,SSE,150,0.0,1.0,86,0.00,,,0.00,vanprod-2.3,2013-02-17 08:50:00,
2013-02-17 02:55:00,13.0,9.6,29.97,SSE,150,0.0,0.0,86,0.00,,,0.00,vanprod-2.3,2013-02-17 08:55:00,
2013-02-17 03:00:00,12.6,9.2,29.97,SSE,150,1.0,0.0,86,0.00,,,0.00,vanprod-2.3,2013-02-17 09:00:00,
2013-02-17 03:05:00,12.4,9.0,29.97,SSE,150,0.0,0.0,86,0.00,,,0.00,vanprod-2.3,2013-02-17 09:05:00,
2013-02-17 03:10:00,12.3,8.9,29.97,SSE,150,1.0,1.0,86,0.00,,,0.00,vanprod-2.3,2013-02-17 09:10:00,
2013-02-17 03:15:00,11.9,8.5,29.97,SSE,150,1.0,2.0,86,0.00,,,0.00,vanprod-2.3,2013-02-17 09:15:00,
2013-02-17 03:20:00,11.8,8.4,29.97,SSE,150,0.0,0.0,86,0.00,,,0.00,vanprod-2.3,2013-02-17 09:20:00,
2013-02-17 03:25:00,11.4,8.0,29.97,SSE,150,1.0,2.0,86,0.00,,,0.00,vanprod-2.3,2013-02-17 09:25:00,
2013-02-17 03:30:00,11.2,7.8,29.96,SSE,150,1.0,0.0,86,0.00,,,0.00,vanprod-2.3,2013-02-17 09:30:00,
2013-02-17 03:35:00,11.2,8.1,29.96,SSE,150,1.0,0.0,87,0.00,,,0.00,vanprod-2.3,2013-02-17 09:35:00,
2013-02-17 03:40:00,11.2,8.1,29.95,SSE,150,0.0,0.0,87,0.00,,,0.00,vanprod-2.3,2013-02-17 09:40:00,
2013-02-17 03:45:00,11.4,8.3,29.95,SSE,150,0.0,0.0,87,0.00,,,0.00,vanprod-2.3,2013-02-17 09:45:00,
2013-02-17 03:50:00,11.8,8.7,29.95,SSE,150,1.0,0.0,87,0.00,,,0.00,vanprod-2.3,2013-02-17 09:50:00,
2013-02-17 03:55:00,12.1,9.2,29.95,SSE,150,0.0,0.0,88,0.00,,,0.00,vanprod-2.3,2013-02-17 09:55:00,
2013-02-17 04:00:00,12.4,9.5,29.94,SSE,150,0.0,0.0,88,0.00,,,0.00,vanprod-2.3,2013-02-17 10:00:00,
2013-02-17 04:05:00,13.0,10.4,29.94,SSE,150,0.0,0.0,89,0.00,,,0.00,vanprod-2.3,2013-02-17 10:05:00,
2013-02-17 04:10:00,13.1,10.5,29.94,SSE,150,0.0,0.0,89,0.00,,,0.00,vanprod-2.3,2013-02-17 10:10:00,
2013-02-17 04:15:00,13.9,11.3,29.94,SSE,150,0.0,0.0,89,0.00,,,0.00,vanprod-2.3,2013-02-17 10:15:00,
2013-02-17 04:20:00,14.6,12.2,29.93,SSE,150,0.0,2.0,90,0.00,,,0.00,vanprod-2.3,2013-02-17 10:20:00,
2013-02-17 04:25:00,15.2,12.8,29.94,SSE,150,0.0,0.0,90,0.00,,,0.00,vanprod-2.3,2013-02-17 10:25:00,
2013-02-17 04:30:00,15.6,13.2,29.93,SSE,150,0.0,0.0,90,0.00,,,0.00,vanprod-2.3,2013-02-17 10:30:00,
2013-02-17 04:35:00,16.0,13.3,29.94,SSE,150,0.0,0.0,89,0.00,,,0.00,vanprod-2.3,2013-02-17 10:35:00,
2013-02-17 04:40:00,16.5,13.8,29.93,SSE,150,2.0,0.0,89,0.00,,,0.00,vanprod-2.3,2013-02-17 10:40:00,
2013-02-17 04:45:00,16.8,13.9,29.93,SSE,150,3.0,3.0,88,0.00,,,0.00,vanprod-2.3,2013-02-17 10:45:00,
2013-02-17 04:50:00,17.2,14.3,29.93,SSE,150,2.0,2.0,88,0.00,,,0.00,vanprod-2.3,2013-02-17 10:50:00,
2013-02-17 04:55:00,17.3,14.4,29.93,SSE,150,2.0,0.0,88,0.00,,,0.00,vanprod-2.3,2013-02-17 10:55:00,
2013-02-17 05:00:00,17.3,14.1,29.92,SSE,150,2.0,2.0,87,0.00,,,0.00,vanprod-2.3,2013-02-17 11:00:00,
2013-02-17 05:05:00,17.3,14.1,29.92,SSE,150,2.0,2.0,87,0.00,,,0.00,vanprod-2.3,2013-02-17 11:05:00,
2013-02-17 05:10:00,17.3,14.1,29.92,SSE,150,2.0,2.0,87,0.00,,,0.00,vanprod-2.3,2013-02-17 11:10:00,
2013-02-17 05:15:00,17.3,14.1,29.91,SSE,150,2.0,3.0,87,0.00,,,0.00,vanprod-2.3,2013-02-17 11:15:00,
2013-02-17 05:20:00,17.3,14.1,29.91,SSE,147,2.0,6.0,87,0.00,,,0.00,vanprod-2.3,2013-02-17 11:20:00,
2013-02-17 05:25:00,17.2,14.0,29.91,SE,145,1.0,2.0,87,0.00,,,0.00,vanprod-2.3,2013-02-17 11:25:00,
2013-02-17 05:30:00,17.2,14.0,29.91,SE,145,0.0,0.0,87,0.00,,,0.00,vanprod-2.3,2013-02-17 11:30:00,
2013-02-17 05:35:00,17.2,14.0,29.91,SE,145,1.0,2.0,87,0.00,,,0.00,vanprod-2.3,2013-02-17 11:35:00,
2013-02-17 05:40:00,17.0,13.8,29.91,SE,145,0.0,1.0,87,0.00,,,0.00,vanprod-2.3,2013-02-17 11:40:00,
2013-02-17 05:45:00,16.8,13.6,29.91,SE,145,0.0,0.0,87,0.00,,,0.00,vanprod-2.3,2013-02-17 11:45:00,
2013-02-17 05:50:00,16.7,13.5,29.90,SE,145,0.0,0.0,87,0.00,,,0.00,vanprod-2.3,2013-02-17 11:50:00,
2013-02-17 05:55:00,16.4,13.2,29.90,SE,145,1.0,2.0,87,0.00,,,0.00,vanprod-2.3,2013-02-17 11:55:00,
2013-02-17 06:00:00,16.2,13.0,29.90,SE,145,1.0,1.0,87,0.00,,,0.00,vanprod-2.3,2013-02-17 12:00:00,
2013-02-17 06:05:00,15.9,12.5,29.90,SE,145,1.0,1.0,86,0.00,,,0.00,vanprod-2.3,2013-02-17 12:05:00,
2013-02-17 06:10:00,15.6,12.4,29.89,SE,145,1.0,2.0,87,0.00,,,0.00,vanprod-2.3,2013-02-17 12:10:00,
2013-02-17 06:15:00,15.4,12.2,29.89,SE,145,2.0,3.0,87,0.00,,,0.00,vanprod-2.3,2013-02-17 12:15:00,
2013-02-17 06:20:00,15.2,12.0,29.89,SE,145,1.0,2.0,87,0.00,,,0.00,vanprod-2.3,2013-02-17 12:20:00,
2013-02-17 06:25:00,15.1,11.9,29.89,SE,145,1.0,1.0,87,0.00,,,0.00,vanprod-2.3,2013-02-17 12:25:00,
2013-02-17 06:30:00,14.9,11.7,29.89,SE,145,1.0,1.0,87,0.00,,,0.00,vanprod-2.3,2013-02-17 12:30:00,
2013-02-17 06:35:00,15.2,12.3,29.89,SE,145,0.0,0.0,88,0.00,,,0.00,vanprod-2.3,2013-02-17 12:35:00,
2013-02-17 06:40:00,15.7,13.0,29.89,SE,145,2.0,3.0,89,0.00,,,0.00,vanprod-2.3,2013-02-17 12:40:00,
2013-02-17 06:45:00,16.0,13.3,29.89,SE,145,2.0,2.0,89,0.00,,,0.00,vanprod-2.3,2013-02-17 12:45:00,
2013-02-17 06:50:00,16.0,13.1,29.88,SE,145,1.0,2.0,88,0.00,,,0.00,vanprod-2.3,2013-02-17 12:50:00,
2013-02-17 06:55:00,16.2,13.3,29.88,SE,145,2.0,3.0,88,0.00,,,0.00,vanprod-2.3,2013-02-17 12:55:00,
2013-02-17 07:00:00,16.2,13.3,29.88,SE,145,1.0,3.0,88,0.00,,,0.00,vanprod-2.3,2013-02-17 13:00:00,
2013-02-17 07:05:00,16.2,13.3,29.88,SE,146,2.0,2.0,88,0.00,,,0.00,vanprod-2.3,2013-02-17 13:05:00,
2013-02-17 07:10:00,15.9,12.7,29.87,SE,146,2.0,2.0,87,0.00,,,0.00,vanprod-2.3,2013-02-17 13:10:00,
2013-02-17 07:15:00,15.7,12.5,29.87,SE,146,2.0,2.0,87,0.00,,,0.00,vanprod-2.3,2013-02-17 13:15:00,
2013-02-17 07:20:00,15.6,12.4,29.87,SE,146,1.0,1.0,87,0.00,,,0.00,vanprod-2.3,2013-02-17 13:20:00,
2013-02-17 07:25:00,15.7,12.8,29.87,SE,145,2.0,2.0,88,0.00,,,0.00,vanprod-2.3,2013-02-17 13:25:00,
2013-02-17 07:30:00,16.0,13.3,29.87,SE,145,1.0,5.0,89,0.00,,,0.00,vanprod-2.3,2013-02-17 13:30:00,
2013-02-17 07:35:00,16.4,13.7,29.87,SSE,150,1.0,0.0,89,0.00,,,0.00,vanprod-2.3,2013-02-17 13:35:00,
2013-02-17 07:40:00,16.7,13.8,29.87,SSE,150,1.0,3.0,88,0.00,,,0.00,vanprod-2.3,2013-02-17 13:40:00,
2013-02-17 07:45:00,16.8,13.9,29.87,SSE,150,2.0,2.0,88,0.00,,,0.00,vanprod-2.3,2013-02-17 13:45:00,
2013-02-17 07:50:00,17.0,14.1,29.87,SSE,150,1.0,1.0,88,0.00,,,0.00,vanprod-2.3,2013-02-17 13:50:00,
2013-02-17 07:55:00,17.0,14.1,29.87,SSE,155,1.0,0.0,88,0.00,,,0.00,vanprod-2.3,2013-02-17 13:55:00,
2013-02-17 08:00:00,17.3,14.1,29.86,SSE,155,1.0,0.0,87,0.00,,,0.00,vanprod-2.3,2013-02-17 14:00:00,
2013-02-17 08:05:00,17.3,14.1,29.87,SSE,155,2.0,2.0,87,0.00,,,0.00,vanprod-2.3,2013-02-17 14:05:00,
2013-02-17 08:10:00,17.5,14.3,29.86,SSE,155,2.0,2.0,87,0.00,,,0.00,vanprod-2.3,2013-02-17 14:10:00,
2013-02-17 08:15:00,17.8,14.6,29.86,SSE,155,3.0,3.0,87,0.00,,,0.00,vanprod-2.3,2013-02-17 14:15:00,
2013-02-17 08:20:00,17.9,14.7,29.86,SSE,155,2.0,2.0,87,0.00,,,0.00,vanprod-2.3,2013-02-17 14:20:00,
2013-02-17 08:25:00,18.1,14.6,29.85,SSE,155,2.0,2.0,86,0.00,,,0.00,vanprod-2.3,2013-02-17 14:25:00,
2013-02-17 08:30:00,18.3,14.8,29.85,SSE,157,3.0,3.0,86,0.00,,,0.00,vanprod-2.3,2013-02-17 14:30:00,
2013-02-17 08:35:00,18.6,15.1,29.84,SSE,155,3.0,3.0,86,0.00,,,0.00,vanprod-2.3,2013-02-17 14:35:00,
2013-02-17 08:40:00,18.7,14.9,29.83,SE,133,4.0,7.0,85,0.00,,,0.00,vanprod-2.3,2013-02-17 14:40:00,
2013-02-17 08:45:00,18.9,15.1,29.82,ESE,107,4.0,4.0,85,0.00,,,0.00,vanprod-2.3,2013-02-17 14:45:00,
2013-02-17 08:50:00,19.0,15.2,29.82,ESE,119,4.0,4.0,85,0.00,,,0.00,vanprod-2.3,2013-02-17 14:50:00,
2013-02-17 08:55:00,19.4,15.6,29.82,SSE,157,3.0,3.0,85,0.00,,,0.00,vanprod-2.3,2013-02-17 14:55:00,
2013-02-17 09:00:00,19.8,15.8,29.82,SSE,152,3.0,3.0,84,0.00,,,0.00,vanprod-2.3,2013-02-17 15:00:00,
2013-02-17 09:05:00,20.3,16.2,29.82,SE,136,3.0,3.0,84,0.00,,,0.00,vanprod-2.3,2013-02-17 15:05:00,
2013-02-17 09:10:00,20.8,16.5,29.82,South,176,4.0,4.0,83,0.00,,,0.00,vanprod-2.3,2013-02-17 15:10:00,
2013-02-17 09:15:00,21.3,17.0,29.82,SE,142,6.0,6.0,83,0.00,,,0.00,vanprod-2.3,2013-02-17 15:15:00,
2013-02-17 09:20:00,21.6,17.0,29.83,SE,138,10.0,15.0,82,0.00,,,0.00,vanprod-2.3,2013-02-17 15:20:00,
2013-02-17 09:25:00,22.0,17.4,29.82,South,176,4.0,6.0,82,0.00,,,0.00,vanprod-2.3,2013-02-17 15:25:00,
2013-02-17 09:30:00,22.0,17.4,29.82,South,174,7.0,7.0,82,0.00,,,0.00,vanprod-2.3,2013-02-17 15:30:00,
2013-02-17 09:35:00,22.0,16.8,29.82,South,181,9.0,10.0,80,0.00,,,0.00,vanprod-2.3,2013-02-17 15:35:00,
2013-02-17 09:40:00,22.0,16.8,29.82,SSE,162,4.0,7.0,80,0.00,,,0.00,vanprod-2.3,2013-02-17 15:40:00,
2013-02-17 09:45:00,22.0,16.8,29.82,South,185,6.0,7.0,80,0.00,,,0.00,vanprod-2.3,2013-02-17 15:45:00,
2013-02-17 09:50:00,22.0,16.8,29.82,SSE,152,6.0,6.0,80,0.00,,,0.00,vanprod-2.3,2013-02-17 15:50:00,
2013-02-17 09:55:00,21.9,16.7,29.82,South,174,9.0,9.0,80,0.00,,,0.00,vanprod-2.3,2013-02-17 15:55:00,
2013-02-17 10:00:00,21.9,16.7,29.81,SSE,162,6.0,6.0,80,0.00,,,0.00,vanprod-2.3,2013-02-17 16:00:00,
2013-02-17 10:05:00,22.0,16.8,29.81,SE,131,7.0,8.0,80,0.00,,,0.00,vanprod-2.3,2013-02-17 16:05:00,
2013-02-17 10:10:00,22.2,17.0,29.81,ESE,113,5.0,5.0,80,0.00,,,0.00,vanprod-2.3,2013-02-17 16:10:00,
2013-02-17 10:15:00,22.5,17.3,29.81,South,181,6.0,6.0,80,0.00,,,0.00,vanprod-2.3,2013-02-17 16:15:00,
2013-02-17 10:20:00,23.0,17.5,29.81,SSE,164,6.0,7.0,79,0.00,,,0.00,vanprod-2.3,2013-02-17 16:20:00,
2013-02-17 10:25:00,23.3,17.8,29.81,SSW,196,7.0,8.0,79,0.00,,,0.00,vanprod-2.3,2013-02-17 16:25:00,
2013-02-17 10:30:00,23.6,18.1,29.81,South,189,8.0,8.0,79,0.00,,,0.00,vanprod-2.3,2013-02-17 16:30:00,
2013-02-17 10:35:00,23.7,17.9,29.80,South,171,8.0,10.0,78,0.00,,,0.00,vanprod-2.3,2013-02-17 16:35:00,
2013-02-17 10:40:00,23.9,18.1,29.80,SSE,157,6.0,6.0,78,0.00,,,0.00,vanprod-2.3,2013-02-17 16:40:00,
2013-02-17 10:45:00,24.0,18.1,29.80,South,178,4.0,4.0,78,0.00,,,0.00,vanprod-2.3,2013-02-17 16:45:00,
2013-02-17 10:50:00,24.0,18.1,29.80,SSE,165,5.0,5.0,78,0.00,,,0.00,vanprod-2.3,2013-02-17 16:50:00,
2013-02-17 10:55:00,24.6,18.7,29.80,South,171,4.0,4.0,78,0.00,,,0.00,vanprod-2.3,2013-02-17 16:55:00,
2013-02-17 11:00:00,25.1,18.9,29.80,SSE,153,12.0,12.0,77,0.00,,,0.00,vanprod-2.3,2013-02-17 17:00:00,
2013-02-17 11:05:00,25.1,18.9,29.79,South,178,2.0,6.0,77,0.00,,,0.00,vanprod-2.3,2013-02-17 17:05:00,
2013-02-17 11:10:00,25.3,19.1,29.79,SE,136,8.0,11.0,77,0.00,,,0.00,vanprod-2.3,2013-02-17 17:10:00,
2013-02-17 11:15:00,25.8,19.3,29.79,SE,138,8.0,8.0,76,0.00,,,0.00,vanprod-2.3,2013-02-17 17:15:00,
2013-02-17 11:20:00,25.9,19.4,29.78,SSE,162,6.0,6.0,76,0.00,,,0.00,vanprod-2.3,2013-02-17 17:20:00,
2013-02-17 11:25:00,26.2,19.7,29.78,SSE,153,6.0,6.0,76,0.00,,,0.00,vanprod-2.3,2013-02-17 17:25:00,
2013-02-17 11:30:00,26.2,19.7,29.77,SSE,168,6.0,11.0,76,0.00,,,0.00,vanprod-2.3,2013-02-17 17:30:00,
2013-02-17 11:35:00,26.7,20.2,29.77,SSE,163,7.0,11.0,76,0.00,,,0.00,vanprod-2.3,2013-02-17 17:35:00,
2013-02-17 11:40:00,27.0,20.5,29.77,SE,134,5.0,7.0,76,0.00,,,0.00,vanprod-2.3,2013-02-17 17:40:00,
2013-02-17 11:45:00,27.6,20.7,29.77,South,172,10.0,10.0,75,0.00,,,0.00,vanprod-2.3,2013-02-17 17:45:00,
2013-02-17 11:50:00,28.0,21.1,29.76,SSE,163,8.0,14.0,75,0.00,,,0.00,vanprod-2.3,2013-02-17 17:50:00,
2013-02-17 11:55:00,28.2,21.0,29.76,SSE,166,10.0,10.0,74,0.00,,,0.00,vanprod-2.3,2013-02-17 17:55:00,
2013-02-17 12:00:00,28.6,21.4,29.75,SSE,149,6.0,7.0,74,0.00,,,0.00,vanprod-2.3,2013-02-17 18:00:00,
2013-02-17 12:05:00,28.6,21.1,29.75,SE,140,6.0,6.0,73,0.00,,,0.00,vanprod-2.3,2013-02-17 18:05:00,
2013-02-17 12:10:00,28.8,21.6,29.75,SSE,162,8.0,8.0,74,0.00,,,0.00,vanprod-2.3,2013-02-17 18:10:00,
2013-02-17 12:15:00,28.6,21.4,29.74,SSE,167,9.0,10.0,74,0.00,,,0.00,vanprod-2.3,2013-02-17 18:15:00,
2013-02-17 12:20:00,28.6,21.4,29.74,SSE,162,6.0,6.0,74,0.00,,,0.00,vanprod-2.3,2013-02-17 18:20:00,
2013-02-17 12:25:00,28.9,21.7,29.73,SSE,161,7.0,7.0,74,0.00,,,0.00,vanprod-2.3,2013-02-17 18:25:00,
2013-02-17 12:30:00,29.2,22.0,29.73,SSE,148,7.0,8.0,74,0.00,,,0.00,vanprod-2.3,2013-02-17 18:30:00,
2013-02-17 12:35:00,29.2,22.0,29.72,South,170,8.0,8.0,74,0.00,,,0.00,vanprod-2.3,2013-02-17 18:35:00,
2013-02-17 12:40:00,29.5,22.2,29.72,SSE,153,7.0,7.0,74,0.00,,,0.00,vanprod-2.3,2013-02-17 18:40:00,
2013-02-17 12:45:00,29.6,22.3,29.71,South,190,8.0,8.0,74,0.00,,,0.00,vanprod-2.3,2013-02-17 18:45:00,
2013-02-17 12:50:00,29.8,22.9,29.71,South,169,8.0,11.0,75,0.00,,,0.00,vanprod-2.3,2013-02-17 18:50:00,
2013-02-17 12:55:00,30.1,22.8,29.71,SSE,158,7.0,7.0,74,0.00,,,0.00,vanprod-2.3,2013-02-17 18:55:00,
2013-02-17 13:00:00,30.1,22.8,29.71,SSE,165,5.0,5.0,74,0.00,,,0.00,vanprod-2.3,2013-02-17 19:00:00,
2013-02-17 13:05:00,30.5,23.2,29.71,SSE,161,9.0,9.0,74,0.00,,,0.00,vanprod-2.3,2013-02-17 19:05:00,
2013-02-17 13:10:00,31.0,23.7,29.71,South,170,5.0,6.0,74,0.00,,,0.00,vanprod-2.3,2013-02-17 19:10:00,
2013-02-17 13:15:00,31.4,23.8,29.70,SE,140,8.0,8.0,73,0.00,,,0.00,vanprod-2.3,2013-02-17 19:15:00,
2013-02-17 13:20:00,31.4,24.1,29.70,SSE,165,7.0,12.0,74,0.00,,,0.00,vanprod-2.3,2013-02-17 19:20:00,
2013-02-17 13:25:00,31.3,24.0,29.69,SSE,152,6.0,6.0,74,0.00,,,0.00,vanprod-2.3,2013-02-17 19:25:00,
2013-02-17 13:30:00,31.4,24.1,29.69,SE,134,6.0,6.0,74,0.00,,,0.00,vanprod-2.3,2013-02-17 19:30:00,
2013-02-17 13:35:00,31.6,24.6,29.69,SSE,159,6.0,6.0,75,0.00,,,0.00,vanprod-2.3,2013-02-17 19:35:00,
2013-02-17 13:40:00,31.7,24.4,29.69,SSE,151,6.0,6.0,74,0.00,,,0.00,vanprod-2.3,2013-02-17 19:40:00,
2013-02-17 13:45:00,31.7,24.4,29.68,SSE,154,5.0,6.0,74,0.00,,,0.00,vanprod-2.3,2013-02-17 19:45:00,
2013-02-17 13:50:00,32.0,25.0,29.68,SE,139,6.0,6.0,75,0.00,,,0.00,vanprod-2.3,2013-02-17 19:50:00,
2013-02-17 13:55:00,32.2,24.9,29.68,South,173,5.0,5.0,74,0.00,,,0.00,vanprod-2.3,2013-02-17 19:55:00,
2013-02-17 14:00:00,32.4,25.1,29.68,SSE,164,5.0,10.0,74,0.00,,,0.00,vanprod-2.3,2013-02-17 20:00:00,
2013-02-17 14:05:00,32.6,24.9,29.68,SSE,153,7.0,7.0,73,0.00,,,0.00,vanprod-2.3,2013-02-17 20:05:00,
2013-02-17 14:10:00,32.7,25.0,29.68,SSE,164,6.0,8.0,73,0.00,,,0.00,vanprod-2.3,2013-02-17 20:10:00,
2013-02-17 14:15:00,32.7,25.0,29.66,SE,142,6.0,6.0,73,0.00,,,0.00,vanprod-2.3,2013-02-17 20:15:00,
2013-02-17 14:20:00,32.7,25.3,29.66,SSE,149,5.0,7.0,74,0.00,,,0.00,vanprod-2.3,2013-02-17 20:20:00,
2013-02-17 14:25:00,32.9,25.2,29.65,SSE,157,7.0,14.0,73,0.00,,,0.00,vanprod-2.3,2013-02-17 20:25:00,
2013-02-17 14:30:00,33.0,25.3,29.65,SSE,159,6.0,7.0,73,0.00,,,0.00,vanprod-2.3,2013-02-17 20:30:00,
2013-02-17 14:35:00,33.6,26.2,29.65,ESE,108,3.0,5.0,74,0.00,,,0.00,vanprod-2.3,2013-02-17 20:35:00,
2013-02-17 14:40:00,33.8,26.1,29.64,SE,134,5.0,5.0,73,0.00,,,0.00,vanprod-2.3,2013-02-17 20:40:00,
2013-02-17 14:45:00,33.8,26.1,29.64,SE,132,5.0,8.0,73,0.00,,,0.00,vanprod-2.3,2013-02-17 20:45:00,
2013-02-17 14:50:00,33.9,26.2,29.64,SSE,158,6.0,6.0,73,0.00,,,0.00,vanprod-2.3,2013-02-17 20:50:00,
2013-02-17 14:55:00,33.9,26.5,29.63,SSE,165,5.0,7.0,74,0.00,,,0.00,vanprod-2.3,2013-02-17 20:55:00,
2013-02-17 15:00:00,34.1,26.4,29.63,SE,131,6.0,10.0,73,0.00,,,0.00,vanprod-2.3,2013-02-17 21:00:00,
2013-02-17 15:05:00,34.2,26.8,29.62,SE,143,5.0,6.0,74,0.00,,,0.00,vanprod-2.3,2013-02-17 21:05:00,
2013-02-17 15:10:00,34.4,26.7,29.62,SSE,155,8.0,10.0,73,0.00,,,0.00,vanprod-2.3,2013-02-17 21:10:00,
2013-02-17 15:15:00,34.4,27.0,29.62,SE,137,5.0,6.0,74,0.00,,,0.00,vanprod-2.3,2013-02-17 21:15:00,
2013-02-17 15:20:00,34.2,26.8,29.62,SSE,151,7.0,7.0,74,0.00,,,0.00,vanprod-2.3,2013-02-17 21:20:00,
2013-02-17 15:25:00,34.2,26.8,29.61,SE,132,5.0,12.0,74,0.00,,,0.00,vanprod-2.3,2013-02-17 21:25:00,
2013-02-17 15:30:00,34.4,27.0,29.61,SSE,150,6.0,6.0,74,0.00,,,0.00,vanprod-2.3,2013-02-17 21:30:00,
2013-02-17 15:35:00,34.4,27.0,29.61,SE,136,6.0,6.0,74,0.00,,,0.00,vanprod-2.3,2013-02-17 21:35:00,
2013-02-17 15:40:00,34.4,27.3,29.60,SSE,163,4.0,4.0,75,0.00,,,0.00,vanprod-2.3,2013-02-17 21:40:00,
2013-02-17 15:45:00,34.5,27.4,29.60,SE,136,6.0,6.0,75,0.00,,,0.00,vanprod-2.3,2013-02-17 21:45:00,
2013-02-17 15:50:00,34.5,27.4,29.61,SE,136,4.0,5.0,75,0.00,,,0.00,vanprod-2.3,2013-02-17 21:50:00,
2013-02-17 15:55:00,34.7,27.6,29.61,SE,128,4.0,4.0,75,0.00,,,0.00,vanprod-2.3,2013-02-17 21:55:00,
2013-02-17 16:00:00,34.7,27.6,29.60,ESE,121,5.0,5.0,75,0.00,,,0.00,vanprod-2.3,2013-02-17 22:00:00,
2013-02-17 16:05:00,34.8,27.7,29.60,SSE,148,4.0,5.0,75,0.00,,,0.00,vanprod-2.3,2013-02-17 22:05:00,
2013-02-17 16:10:00,34.7,27.9,29.59,SE,144,3.0,4.0,76,0.00,,,0.00,vanprod-2.3,2013-02-17 22:10:00,
2013-02-17 16:15:00,34.7,27.9,29.60,SE,146,5.0,5.0,76,0.00,,,0.00,vanprod-2.3,2013-02-17 22:15:00,
2013-02-17 16:20:00,34.5,27.7,29.60,ESE,117,4.0,4.0,76,0.00,,,0.00,vanprod-2.3,2013-02-17 22:20:00,
2013-02-17 16:25:00,34.5,28.0,29.60,SE,127,3.0,3.0,77,0.00,,,0.00,vanprod-2.3,2013-02-17 22:25:00,
2013-02-17 16:30:00,34.5,28.0,29.59,SE,139,4.0,6.0,77,0.00,,,0.00,vanprod-2.3,2013-02-17 22:30:00,
2013-02-17 16:35:00,34.5,28.0,29.59,South,180,4.0,5.0,77,0.00,,,0.00,vanprod-2.3,2013-02-17 22:35:00,
2013-02-17 16:40:00,34.7,28.2,29.59,ESE,117,5.0,6.0,77,0.00,,,0.00,vanprod-2.3,2013-02-17 22:40:00,
2013-02-17 16:45:00,34.5,28.0,29.59,ESE,120,4.0,4.0,77,0.00,,,0.00,vanprod-2.3,2013-02-17 22:45:00,
2013-02-17 16:50:00,34.4,28.3,29.58,SSE,151,4.0,4.0,78,0.00,,,0.00,vanprod-2.3,2013-02-17 22:50:00,
2013-02-17 16:55:00,34.4,28.3,29.58,SE,131,5.0,5.0,78,0.00,,,0.00,vanprod-2.3,2013-02-17 22:55:00,
2013-02-17 17:00:00,34.4,28.3,29.59,SE,124,4.0,5.0,78,0.00,,,0.00,vanprod-2.3,2013-02-17 23:00:00,
2013-02-17 17:05:00,34.4,28.6,29.58,ESE,113,6.0,6.0,79,0.00,,,0.00,vanprod-2.3,2013-02-17 23:05:00,
2013-02-17 17:10:00,34.4,28.6,29.58,SE,128,7.0,8.0,79,0.00,,,0.00,vanprod-2.3,2013-02-17 23:10:00,
2013-02-17 17:15:00,34.2,28.7,29.58,SSE,168,6.0,6.0,80,0.00,,,0.00,vanprod-2.3,2013-02-17 23:15:00,
2013-02-17 17:20:00,34.2,28.7,29.58,SSE,165,7.0,7.0,80,0.00,,,0.00,vanprod-2.3,2013-02-17 23:20:00,
2013-02-17 17:25:00,34.1,28.6,29.58,South,169,5.0,5.0,80,0.00,,,0.00,vanprod-2.3,2013-02-17 23:25:00,
2013-02-17 17:30:00,34.2,28.7,29.58,SE,143,4.0,4.0,80,0.00,,,0.00,vanprod-2.3,2013-02-17 23:30:00,
2013-02-17 17:35:00,34.2,28.7,29.58,SSE,149,6.0,11.0,80,0.00,,,0.00,vanprod-2.3,2013-02-17 23:35:00,
2013-02-17 17:40:00,34.1,28.9,29.58,SE,137,4.0,6.0,81,0.00,,,0.00,vanprod-2.3,2013-02-17 23:40:00,
2013-02-17 17:45:00,34.1,28.9,29.58,SE,133,6.0,6.0,81,0.00,,,0.00,vanprod-2.3,2013-02-17 23:45:00,
2013-02-17 17:50:00,34.1,28.9,29.58,SSE,156,5.0,5.0,81,0.00,,,0.00,vanprod-2.3,2013-02-17 23:50:00,
2013-02-17 17:55:00,34.2,29.0,29.57,SSE,150,5.0,6.0,81,0.00,,,0.00,vanprod-2.3,2013-02-17 23:55:00,
2013-02-17 18:00:00,34.2,29.0,29.58,SE,137,4.0,5.0,81,0.00,,,0.00,vanprod-2.3,2013-02-18 00:00:00,
2013-02-17 18:05:00,34.2,29.0,29.58,SSE,157,5.0,6.0,81,0.00,,,0.00,vanprod-2.3,2013-02-18 00:05:00,
2013-02-17 18:10:00,34.2,29.0,29.58,SSE,147,5.0,6.0,81,0.00,,,0.00,vanprod-2.3,2013-02-18 00:10:00,
2013-02-17 18:15:00,34.2,28.7,29.57,SSE,151,5.0,5.0,80,0.00,,,0.00,vanprod-2.3,2013-02-18 00:15:00,
2013-02-17 18:20:00,34.2,29.0,29.57,SE,146,7.0,17.0,81,0.00,,,0.00,vanprod-2.3,2013-02-18 00:20:00,
2013-02-17 18:25:00,34.4,28.9,29.57,SE,144,7.0,13.0,80,0.00,,,0.00,vanprod-2.3,2013-02-18 00:25:00,
2013-02-17 18:30:00,34.4,28.9,29.57,ESE,120,3.0,4.0,80,0.00,,,0.00,vanprod-2.3,2013-02-18 00:30:00,
2013-02-17 18:35:00,34.4,28.9,29.57,SE,134,5.0,8.0,80,0.00,,,0.00,vanprod-2.3,2013-02-18 00:35:00,
2013-02-17 18:40:00,34.4,28.9,29.57,SE,140,5.0,5.0,80,0.00,,,0.00,vanprod-2.3,2013-02-18 00:40:00,
2013-02-17 18:45:00,34.4,28.9,29.57,SE,130,4.0,6.0,80,0.00,,,0.00,vanprod-2.3,2013-02-18 00:45:00,
2013-02-17 18:50:00,34.4,28.9,29.57,ESE,117,4.0,5.0,80,0.00,,,0.00,vanprod-2.3,2013-02-18 00:50:00,
2013-02-17 18:55:00,34.2,28.7,29.57,SSE,153,4.0,11.0,80,0.00,,,0.00,vanprod-2.3,2013-02-18 00:55:00,
2013-02-17 19:00:00,34.2,28.7,29.56,SE,146,3.0,6.0,80,0.00,,,0.00,vanprod-2.3,2013-02-18 01:00:00,
2013-02-17 19:05:00,34.2,28.7,29.56,South,179,4.0,4.0,80,0.00,,,0.00,vanprod-2.3,2013-02-18 01:05:00,
2013-02-17 19:10:00,34.1,28.6,29.56,SE,130,5.0,5.0,80,0.00,,,0.00,vanprod-2.3,2013-02-18 01:10:00,
2013-02-17 19:15:00,34.1,28.6,29.56,ESE,117,4.0,5.0,80,0.00,,,0.00,vanprod-2.3,2013-02-18 01:15:00,
2013-02-17 19:20:00,33.9,28.7,29.56,SE,126,4.0,7.0,81,0.00,,,0.00,vanprod-2.3,2013-02-18 01:20:00,
2013-02-17 19:25:00,34.1,28.6,29.55,SE,135,5.0,5.0,80,0.00,,,0.00,vanprod-2.3,2013-02-18 01:25:00,
2013-02-17 19:30:00,34.1,28.6,29.55,SE,132,3.0,3.0,80,0.00,,,0.00,vanprod-2.3,2013-02-18 01:30:00,
2013-02-17 19:35:00,33.9,28.7,29.55,ESE,123,4.0,4.0,81,0.00,,,0.00,vanprod-2.3,2013-02-18 01:35:00,
2013-02-17 19:40:00,33.8,28.6,29.55,ESE,114,3.0,3.0,81,0.00,,,0.00,vanprod-2.3,2013-02-18 01:40:00,
2013-02-17 19:45:00,33.8,28.6,29.55,South,169,5.0,5.0,81,0.00,,,0.00,vanprod-2.3,2013-02-18 01:45:00,
2013-02-17 19:50:00,33.9,28.7,29.55,SSE,147,4.0,11.0,81,0.00,,,0.00,vanprod-2.3,2013-02-18 01:50:00,
2013-02-17 19:55:00,33.8,28.6,29.55,ESE,120,4.0,4.0,81,0.00,,,0.00,vanprod-2.3,2013-02-18 01:55:00,
2013-02-17 20:00:00,33.8,28.6,29.55,SE,133,3.0,3.0,81,0.00,,,0.00,vanprod-2.3,2013-02-18 02:00:00,
2013-02-17 20:05:00,33.6,28.4,29.55,ESE,119,2.0,2.0,81,0.00,,,0.00,vanprod-2.3,2013-02-18 02:05:00,
2013-02-17 20:10:00,33.6,28.4,29.55,SE,128,4.0,6.0,81,0.00,,,0.00,vanprod-2.3,2013-02-18 02:10:00,
2013-02-17 20:15:00,33.6,28.4,29.55,ESE,117,3.0,4.0,81,0.00,,,0.00,vanprod-2.3,2013-02-18 02:15:00,
2013-02-17 20:20:00,33.8,28.6,29.55,SE,141,4.0,5.0,81,0.00,,,0.00,vanprod-2.3,2013-02-18 02:20:00,
2013-02-17 20:25:00,33.8,28.6,29.55,SE,134,4.0,4.0,81,0.00,,,0.00,vanprod-2.3,2013-02-18 02:25:00,
2013-02-17 20:30:00,33.8,28.3,29.55,ESE,123,2.0,2.0,80,0.00,,,0.00,vanprod-2.3,2013-02-18 02:30:00,
2013-02-17 20:35:00,33.9,28.4,29.55,ESE,123,5.0,10.0,80,0.00,,,0.00,vanprod-2.3,2013-02-18 02:35:00,
2013-02-17 20:40:00,34.2,28.4,29.55,SSE,150,5.0,5.0,79,0.00,,,0.00,vanprod-2.3,2013-02-18 02:40:00,
2013-02-17 20:45:00,34.2,28.4,29.55,SSE,161,4.0,4.0,79,0.00,,,0.00,vanprod-2.3,2013-02-18 02:45:00,
2013-02-17 20:50:00,34.1,28.3,29.55,SSE,164,5.0,5.0,79,0.00,,,0.00,vanprod-2.3,2013-02-18 02:50:00,
2013-02-17 20:55:00,34.1,28.3,29.55,SSE,152,4.0,7.0,79,0.00,,,0.00,vanprod-2.3,2013-02-18 02:55:00,
2013-02-17 21:00:00,33.9,28.1,29.55,SSE,152,4.0,4.0,79,0.00,,,0.00,vanprod-2.3,2013-02-18 03:00:00,
2013-02-17 21:05:00,33.9,28.1,29.55,SSE,162,4.0,4.0,79,0.00,,,0.00,vanprod-2.3,2013-02-18 03:05:00,
2013-02-17 21:10:00,34.1,28.0,29.55,SE,132,3.0,7.0,78,0.00,,,0.00,vanprod-2.3,2013-02-18 03:10:00,
2013-02-17 21:15:00,34.1,28.0,29.54,SSE,154,3.0,5.0,78,0.00,,,0.00,vanprod-2.3,2013-02-18 03:15:00,
2013-02-17 21:20:00,33.9,27.8,29.54,ESE,117,2.0,2.0,78,0.00,,,0.00,vanprod-2.3,2013-02-18 03:20:00,
2013-02-17 21:25:00,33.9,27.8,29.54,SSW,192,3.0,3.0,78,0.00,,,0.00,vanprod-2.3,2013-02-18 03:25:00,
2013-02-17 21:30:00,33.8,27.7,29.54,South,175,3.0,3.0,78,0.00,,,0.00,vanprod-2.3,2013-02-18 03:30:00,
2013-02-17 21:35:00,33.8,27.7,29.54,SE,124,3.0,3.0,78,0.00,,,0.00,vanprod-2.3,2013-02-18 03:35:00,
2013-02-17 21:40:00,33.6,27.5,29.54,SE,134,2.0,3.0,78,0.00,,,0.00,vanprod-2.3,2013-02-18 03:40:00,
2013-02-17 21:45:00,33.5,27.4,29.53,SE,134,2.0,2.0,78,0.00,,,0.00,vanprod-2.3,2013-02-18 03:45:00,
2013-02-17 21:50:00,33.5,27.7,29.54,SE,127,4.0,6.0,79,0.00,,,0.00,vanprod-2.3,2013-02-18 03:50:00,
2013-02-17 21:55:00,33.3,27.5,29.53,SSE,150,3.0,3.0,79,0.00,,,0.00,vanprod-2.3,2013-02-18 03:55:00,
2013-02-17 22:00:00,33.2,27.4,29.53,South,171,2.0,3.0,79,0.00,,,0.00,vanprod-2.3,2013-02-18 04:00:00,
2013-02-17 22:05:00,33.2,27.4,29.53,SSE,158,3.0,3.0,79,0.00,,,0.00,vanprod-2.3,2013-02-18 04:05:00,
2013-02-17 22:10:00,32.9,27.1,29.53,SSE,158,2.0,2.0,79,0.00,,,0.00,vanprod-2.3,2013-02-18 04:10:00,
2013-02-17 22:15:00,32.6,27.1,29.53,SSE,158,2.0,3.0,80,0.00,,,0.00,vanprod-2.3,2013-02-18 04:15:00,
2013-02-17 22:20:00,32.4,27.2,29.53,SSE,158,0.0,0.0,81,0.00,,,0.00,vanprod-2.3,2013-02-18 04:20:00,
2013-02-17 22:25:00,32.3,27.1,29.52,SSE,158,2.0,2.0,81,0.00,,,0.00,vanprod-2.3,2013-02-18 04:25:00,
2013-02-17 22:30:00,32.2,27.0,29.52,SSE,160,2.0,3.0,81,0.00,,,0.00,vanprod-2.3,2013-02-18 04:30:00,
2013-02-17 22:35:00,32.3,27.4,29.52,SSE,161,1.0,0.0,82,0.00,,,0.00,vanprod-2.3,2013-02-18 04:35:00,
2013-02-17 22:40:00,32.3,27.4,29.52,SSE,161,0.0,0.0,82,0.00,,,0.00,vanprod-2.3,2013-02-18 04:40:00,
2013-02-17 22:45:00,32.3,27.4,29.52,SSE,161,0.0,0.0,82,0.00,,,0.00,vanprod-2.3,2013-02-18 04:45:00,
2013-02-17 22:50:00,32.3,27.4,29.52,SSE,161,0.0,0.0,82,0.00,,,0.00,vanprod-2.3,2013-02-18 04:50:00,
2013-02-17 22:55:00,32.2,27.3,29.52,SSE,161,0.0,2.0,82,0.00,,,0.00,vanprod-2.3,2013-02-18 04:55:00,
2013-02-17 23:00:00,32.0,27.1,29.52,SSE,161,0.0,0.0,82,0.00,,,0.00,vanprod-2.3,2013-02-18 05:00:00,
2013-02-17 23:05:00,31.7,26.8,29.52,SSE,161,1.0,0.0,82,0.00,,,0.00,vanprod-2.3,2013-02-18 05:05:00,
2013-02-17 23:10:00,31.6,27.0,29.51,SSE,161,0.0,0.0,83,0.00,,,0.00,vanprod-2.3,2013-02-18 05:10:00,
2013-02-17 23:15:00,31.4,26.8,29.51,SSE,161,1.0,4.0,83,0.00,,,0.00,vanprod-2.3,2013-02-18 05:15:00,
2013-02-17 23:20:00,31.4,26.8,29.50,SSE,161,1.0,1.0,83,0.00,,,0.00,vanprod-2.3,2013-02-18 05:20:00,
2013-02-17 23:25:00,31.3,26.7,29.51,SSE,161,0.0,1.0,83,0.00,,,0.00,vanprod-2.3,2013-02-18 05:25:00,
2013-02-17 23:30:00,31.3,26.7,29.52,SSE,164,6.0,7.0,83,0.00,,,0.00,vanprod-2.3,2013-02-18 05:30:00,
2013-02-17 23:35:00,31.4,27.1,29.51,SSE,164,2.0,6.0,84,0.00,,,0.00,vanprod-2.3,2013-02-18 05:35:00,
2013-02-17 23:40:00,31.6,27.3,29.52,SSE,164,2.0,2.0,84,0.00,,,0.00,vanprod-2.3,2013-02-18 05:40:00,
2013-02-17 23:45:00,31.7,27.1,29.52,SSE,157,2.0,2.0,83,0.00,,,0.00,vanprod-2.3,2013-02-18 05:45:00,
2013-02-17 23:50:00,31.6,27.0,29.51,SSE,165,1.0,3.0,83,0.00,,,0.00,vanprod-2.3,2013-02-18 05:50:00,
2013-02-17 23:55:00,31.4,26.8,29.52,SSE,165,3.0,3.0,83,0.00,,,0.00,vanprod-2.3,2013-02-18 05:55:00,